OBJECT C, 67685

Orbit data source: Space-Track

You're viewing an Uncataloged Satellite

Recently launched and/or uncataloged satellites may have evolving metadata. Metadata may include but not limited to: Owner, Maufacturer, Bus, Motor, and Mission.

OBJECT C, 67685 is a satellite in LEO that was delivered to and deployed from the ISS. Unknown objects in Earth's orbit typically refer to objects detected orbiting the Earth but have not yet been identified or cataloged. These objects could be anything from previously untracked satellites, spent rocket stages, debris from satellite collisions, or even natural meteoroids temporarily captured by Earth's gravity.

Loading next visibility...
Identifier
67685, 1998-067YB
Orbit
LEO
Country
Flag of TBDTBD
Related business
Manufacturer
Roma La Sapienza
Mission
Operational spacecraft
Bus & Motor
CUBESAT 2U, Unknown motor
Mass
2 kg wet, 2 kg dry
Launch date (UTC)
1998-11-20 (27 years ago)
Launch vehicle
H3-24W
Launch site
Tyuratam Missile And Space Complex (TTMTR)
Object type
Unknown
Shape & HBR
Unknown
Radar Cross Section
RCS unknown

Expand to show TLE details & history
Last TLE update: 23 hours ago

TLE from 23 hours ago
0 OBJECT C
1 67685U 98067YB  26061.38181274  .00046607  00000-0  77682-3 0  9997
2 67685  51.6315 108.1094 0011582 157.7573 202.3921 15.51449802  3652
Epoch: 2026-03-02T09:09Z
TLE epoch observation values (Epoch: 2026-03-02T09:09:48.620Z)
Latitude
-0.00004°
Longitude
170.48075°
Altitude
420.506 km
Speed
7.656 km/s
True Right ascension
07h 12m 26s
True Declination
0° 00' 00"
Sunlit
Object was in full shadow at epoch
Visualization orbit readout
Latitude
Unknown
Longitude
Unknown
Altitude
Unknown
Speed
Unknown
Apparent Right ascension
Unknown
Apparent Declination
Unknown
Sunlit
N/A
Visualization observer readout
Local Sidereal Time
12:17:59
Azimuth
Unknown
Elevation
Unknown
Doppler factor
Unknown
Orbital elements
Apogee altitude
420.867 km
Perigee altitude
405.136 km
Semi-major axis
6,791.139 km
Eccentricity
0.00116
Inclination
51.6315°
RAAN
108.1094°
Arg. of periapsis
157.7573°
True anomaly
202.34161°
Mean anomaly
202.3921°
Eccentric anomaly
202.36685°
Mean motion
3.87819 °/min
Orbital period
92.83 mins
BSTAR
0.00077682
Loading maneuver chart data...
Computing Atmospheric mass density...
Loading historical data...
Loading historical data...
Loading historical data...
Loading historical data...
Loading historical data...
Loading historical data...
Loading historical data...

Documentation

Showing up to 5 results
|